Résultats de la compétition "Championnat d'Alsace Moyenne Distance " du 06-05-2007 organisée par le club 6806
     
  Télécharger le fichier CSV.  
     
     

 Circuit "CIRCUIT A"

Licence Nom Prénom Temps CN
précédent
Score sur
la course
Différence
1911MEYERKirian0:32:37N/A5916N/A
4445POIRSONThomas0:34:59N/A5516N/A
12759SCHAMBERGERPierre0:36:57N/A5222N/A
10259HAURYAndre0:37:17N/A5176N/A
13040VILLARChristophe0:40:36N/A4753N/A
1335BEAUDEUXPhilippe0:41:03N/A4701N/A
18689MARTINFalk0:41:30N/A4650N/A
10814HILDEBRANDPierre0:41:36N/A4638N/A
312JOLYThierry0:42:06N/A4583N/A
7004PHILIPPERenaud0:42:13N/A4571N/A
341FREYVincent0:42:55N/A4496N/A
5743MOLLDavid0:43:08N/A4474N/A
2796LEGALLAISJ-Luc0:43:48N/A4405N/A
302BAGUEREYBaptiste0:43:56N/A4392N/A
11513HAURYGilles0:44:08N/A4372N/A
366VESCOVOJ-Albert0:44:46N/A4310N/A
11430BERNAUERChristophe0:44:59N/A4290N/A
11615ANDRESAugustin0:46:08N/A4183N/A
11875FRANCOISGerald0:46:22N/A4162N/A
12762MARCHANDChristophe0:46:42N/A4132N/A
15851HEIZMANJohannes0:47:02N/A4103N/A
346LAHAUSSEOlivier0:47:36N/A4054N/A
13237POULAINAntoine0:47:41N/A4047N/A
13178HOLLNicolas0:48:44N/A3960N/A
706BACHEREdith0:48:52N/A3949N/A
7256PIBAROTSteve0:49:24N/A3906N/A
2372DIETSCHBernard0:49:33N/A3894N/A
5631BETTINGERJ-Michel0:49:51N/A3871N/A
4586MITTERANDBruno0:49:53N/A3868N/A
13331SEILLERFabien0:50:27N/A3825N/A
10428PHILIPPEEudes0:51:45N/A3729N/A
10901RAVENELPhilippe0:52:26N/A3680N/A
1897FRICKBernard0:54:11N/A3561N/A
1910MEYERJ-Marc0:55:00N/A3508N/A
16260SCHNEBELENJulien0:57:18N/A3368N/A
17647STEINThomas0:58:03N/A3324N/A
3905JOUFFROYMichel0:58:07N/A3320N/A
6819HOUDAYERPhilippe1:03:57N/A3017N/A
15852CLEYET-MERLEChristophe1:04:41N/A2983N/A
7967ROUAULTThierry1:05:24N/A2950N/A
16683NOEGELENFabian1:08:46N/A2806N/A
18199BERGOENDJ. Robert1:09:32N/A2775N/A
10144GRANDEMANGEPhilippe1:09:43N/A2768N/A
10812DRUZETICStephane1:09:57N/A2759N/A
17080SCHAMBERGERDaniel1:12:10N/A2674N/A
18665SOLTYSIAKCezary1:17:54N/A2477N/A
18731DALONAlexandre1:24:24N/A2286N/A
17077MATTERJulien1:26:34N/A2229N/A
13693HAURYMarc1:55:32N/A1670N/A
2277HELSTROFFERSylvainN/AN/A0N/A
17279FINOCCHIOJ-LucN/AN/A0N/A
18770VARINFredericN/AN/A0N/A
13636KORCHAKTomN/AN/A0N/A

  Indice de confiance du circuit (moyenne des différences entre CN et score sur la course des 3 à 10 premiers) : 176




 Circuit "CIRCUIT B"

Licence Nom Prénom Temps CN
précédent
Score sur
la course
Différence
15917KAMMERERMadeleine0:44:19N/A4256N/A
9924BOICHUTIsabelle0:44:23N/A4249N/A
13142LOEWAngelique0:49:26N/A3815N/A
4203MEYEROriane0:51:17N/A3678N/A
15332MEYERPatricia0:51:21N/A3673N/A
2378MAKOVICKAVeronique0:52:23N/A3601N/A
14216VILLARIsabelle0:52:38N/A3583N/A
8217ANDRESClaire0:52:43N/A3578N/A
12145WISSONEmilie0:54:30N/A3461N/A
12078CASTERANMarie0:54:36N/A3454N/A
10903RAVENELManon0:55:27N/A3401N/A
13692HAURYEvelyne0:56:22N/A3346N/A
13351DRUZETICCecilia0:57:04N/A3305N/A
13688FRANCOISAline0:57:20N/A3290N/A
13637KORCHAKLena0:58:00N/A3252N/A
10260LEBIHANSarah1:00:52N/A3099N/A
12761MARCHANDStephanie1:01:34N/A3063N/A
1909MEYERCorinne1:04:12N/A2938N/A
2361THIERYAnnick1:05:26N/A2882N/A
5639HUEBERDiane1:07:39N/A2788N/A
16130ANCELJulie1:08:19N/A2761N/A
310JOLYMauricette1:09:37N/A2709N/A
11507LEBIHANMartine1:10:51N/A2662N/A
10902RAVENELVeronique1:12:52N/A2588N/A
1202VOISINStephanie1:12:57N/A2585N/A
2375MAKOVICKAEdwige1:16:46N/A2457N/A
3904JOUFFROYChristine1:16:54N/A2453N/A
18730DALONLaurence1:37:37N/A1932N/A
18358EVENAurélie1:51:05N/A1698N/A
12829REICHM-LouiseN/AN/A0N/A

  Indice de confiance du circuit (moyenne des différences entre CN et score sur la course des 3 à 10 premiers) : 138




 Circuit "CIRCUIT C"

Licence Nom Prénom Temps CN
précédent
Score sur
la course
Différence
7573OUDINBernard0:26:00N/A4806N/A
2937STRIBEAUMichel0:27:01N/A4625N/A
1086ROBERTChristian0:27:25N/A4558N/A
7259SUTTERAriane0:29:08N/A4289N/A
2558VOGTClaude0:31:01N/A4029N/A
2370CHARLOTPatrick0:32:27N/A3851N/A
1906MERTZAndre0:35:03N/A3565N/A
2555RIAULTBernard0:35:47N/A3492N/A
12037KOCH-MATHIANChristophe0:36:00N/A3471N/A
4059FAIVREDaniel0:36:05N/A3463N/A
5533THIEBAULTJ-Philippe0:37:01N/A3376N/A
15858CASASSASAntoine0:37:04N/A3371N/A
12146WISSONFlorent0:37:08N/A3365N/A
3108GANZITTIAlexandre0:37:54N/A3297N/A
5938EGGLIRoland0:38:35N/A3239N/A
1201CANOGuy0:38:54N/A3212N/A
2376MAKOVICKALibor0:39:09N/A3192N/A
18284ROESLELaurent0:39:19N/A3178N/A
17082SCHAMBERGERAnne0:40:27N/A3089N/A
2368BENACEKVaclav0:40:36N/A3078N/A
9035RUHLMANNMarion0:40:41N/A3071N/A
12375ASMUSSENFlorence0:42:25N/A2946N/A
17394ASMUSSENPascal0:42:50N/A2917N/A
14223FISCHERGuy0:43:18N/A2886N/A
336DUBREZDaniel0:43:26N/A2877N/A
11505CORREYves0:44:08N/A2831N/A
2271HOFERERAlbert0:44:12N/A2827N/A
2263LEMBLEAndre0:44:22N/A2816N/A
12831ANDRESBernard0:45:59N/A2717N/A
2547DESAINTJANClaude0:48:07N/A2597N/A
10904RAVENELFanny0:51:56N/A2406N/A
370WOEHRLEGilbert0:53:26N/A2339N/A
352MULLERRaymond0:55:11N/A2264N/A
7900DELCOURTJ-Pierre0:57:33N/A2171N/A
15297BOEHMYves0:57:37N/A2169N/A
17618ECKESElise1:15:25N/A1657N/A
17626MERCIERThierry1:15:53N/A1647N/A
1883HITZReneN/AN/A0N/A
12828REICHAlainN/AN/A0N/A
320BAGUEREYGillesN/AN/A0N/A

  Indice de confiance du circuit (moyenne des différences entre CN et score sur la course des 3 à 10 premiers) : 179




 Circuit "CIRCUIT D"

Licence Nom Prénom Temps CN
précédent
Score sur
la course
Différence
7260SUTTEROlivier0:21:03N/A4843N/A
6753HUEBERNicole0:24:52N/A4099N/A
5638TARDYVictor0:27:28N/A3711N/A
18467GOETTMANNPierre-Aimé0:31:19N/A3255N/A
1087ROBERTMartine0:32:59N/A3091N/A
13478KORCHAKNicole0:33:10N/A3073N/A
363THIERRY-FISCHERChri0:36:01N/A2830N/A
8639BILQUEZHugo0:36:46N/A2772N/A
6779MAKOVICKAElsa0:37:15N/A2737N/A
2557VOGTChristiane0:37:41N/A2705N/A
1895SALORT - METZSylvie0:39:04N/A2609N/A
7574OUDINM-Reine0:40:50N/A2496N/A
11748STRIBEAUMelanie0:40:59N/A2487N/A
2387SUTTEROdile0:46:31N/A2191N/A
12102BOUVERETMichelle0:49:19N/A2067N/A
13876PIBAROTJulien0:50:09N/A2033N/A
3185PASCAUDClaire0:51:13N/A1990N/A
12036KOCH-MATHIANFrancine0:52:07N/A1956N/A
15296GREVETClaudie0:58:49N/A1733N/A
368VESCOVOOdile1:06:26N/A1534N/A
9018DELCOURTJacqueline1:10:09N/A1453N/A

  Indice de confiance du circuit (moyenne des différences entre CN et score sur la course des 3 à 10 premiers) : 353




 Circuit "CIRCUIT E"

Licence Nom Prénom Temps CN
précédent
Score sur
la course
Différence
13638KORCHAKNathalie0:16:50N/A2401N/A
13477DIETSCHJoel0:17:56N/A2254N/A
18304BEAUDEUXThéo0:18:26N/A2193N/A
17494ANDRIAMORAZAFIHANTASophie0:19:10N/A2109N/A
10024RUHLMANNElodie0:20:13N/A1999N/A
13877PIBAROTApolline0:21:28N/A1883N/A
13872JOUFFROYAxel0:22:59N/A1759N/A
18468GOETTMANNThomas0:23:16N/A1737N/A
13070ASMUSSENDaniele0:24:33N/A1646N/A
17778KOPFFClement0:25:11N/A1605N/A
16921CANOEloise0:26:54N/A1503N/A
18202BERGOENDRomain0:34:24N/A1175N/A

  Indice de confiance du circuit (moyenne des différences entre CN et score sur la course des 3 à 10 premiers) : 257




 Circuit "F - JALONNE"

Licence Nom Prénom Temps CN
précédent
Score sur
la course
Différence
13639KORCHAKEmilie0:15:29N/A3322N/A
17376RUHLMANNTheo0:19:41N/A2613N/A
13873JOUFFROYSophia0:24:51N/A2070N/A
18732DALONInes0:28:30N/A1805N/A
14215VILLARZoe0:28:34N/A1800N/A
17495ANDRIAMORAZAFIHANTANirina0:28:42N/A1792N/A
18699VILLARAlix0:34:13N/A1503N/A
18733DALONClara0:34:15N/A1502N/A
17074FRANCOISLysa0:40:55N/A1257N/A
12832FOUCAULTJuline0:47:40N/A1079N/A

  Indice de confiance du circuit (moyenne des différences entre CN et score sur la course des 3 à 10 premiers) : 752






 Retour